GOMX-1

Last updated on Tue Jul 01 2025 00:03:06 GMT+0000 (Coordinated Universal Time)

1 39430U 13066Q 25181.55275656 .00001355 00000+0 21576-3 0 9990 2 39430 97.6817 38.9282 0133545 124.9238 236.4600 14.67704777618489
UTC large
Height (km)
Speed (km/s)
/
Latitude / Longitude
Inclination (degrees)
Orbital Period (minutes)
Azimuth
Elevation
Range (km)
Doppler Factor

Next 0 passes for location: London (51.5072 / 0.1276)

Sorry there are no passes over London.